Location: St. Louis
(38.6270°N, 90.1994°W)
Time: 04:32:28
(UTC-05:00)

ISS - Pass Details

Date: 17 August 2016
Orbit: 400 x 408 km, 51.6° (Epoch: 24 October)

Event Time Altitude Azimuth Distance (km) Brightness Sun altitude
Rises 20:07:05 0° 299° (WNW) 2,414 2.5 -3.7°
Reaches altitude 10° 20:09:25 10° 287° (WNW) 1,536 1.1 -4.1°
Maximum altitude 20:12:23 27° 227° (SW) 859 -1.8 -4.7°
Drops below altitude 10° 20:15:18 10° 168° (SSE) 1,507 -1.3 -5.2°
Enters shadow 20:17:40 - 155° (SSE) 2,398 -0.3 -5.6°
